Time,TemperatureF,DewpointF,PressureIn,WindDirection,WindDirectionDegrees,WindSpeedMPH,WindSpeedGustMPH,Humidity,HourlyPrecipIn,Conditions,Clouds,dailyrainin,SoftwareType,DateUTC
2013-08-02 00:11:00,61.0,60.0,29.79,WNW,290,3.0,10.0,95,0.00,,,0.00,weatherlink.com 1.10,2013-08-02 04:11:00,
2013-08-02 00:26:00,60.8,59.0,29.79,NW,325,0.0,8.0,95,0.01,,,0.01,weatherlink.com 1.10,2013-08-02 04:26:00,
2013-08-02 00:41:00,60.7,60.0,29.79,West,281,1.0,4.0,96,0.01,,,0.01,weatherlink.com 1.10,2013-08-02 04:41:00,
2013-08-02 00:56:00,60.6,60.0,29.77,SSW,207,1.0,4.0,96,0.01,,,0.01,weatherlink.com 1.10,2013-08-02 04:56:00,
2013-08-02 01:11:00,60.7,60.0,29.77,WSW,258,0.0,5.0,96,0.01,,,0.01,weatherlink.com 1.10,2013-08-02 05:11:00,
2013-08-02 01:26:00,60.6,59.0,29.77,WSW,252,5.0,7.0,95,0.00,,,0.01,weatherlink.com 1.10,2013-08-02 05:26:00,
2013-08-02 01:41:00,60.4,59.0,29.76,South,175,1.0,6.0,95,0.00,,,0.01,weatherlink.com 1.10,2013-08-02 05:41:00,
2013-08-02 01:56:00,60.3,59.0,29.76,WNW,293,0.0,7.0,96,0.00,,,0.01,weatherlink.com 1.10,2013-08-02 05:56:00,
2013-08-02 02:11:00,60.2,59.0,29.75,SSW,199,1.0,6.0,95,0.00,,,0.01,weatherlink.com 1.10,2013-08-02 06:11:00,
2013-08-02 02:26:00,60.2,59.0,29.75,WNW,288,0.0,5.0,96,0.00,,,0.01,weatherlink.com 1.10,2013-08-02 06:26:00,
2013-08-02 03:11:00,60.2,59.0,29.74,SSW,197,0.0,3.0,97,0.00,,,0.01,weatherlink.com 1.10,2013-08-02 07:11:00,
2013-08-02 03:26:00,60.0,59.0,29.74,West,265,0.0,3.0,97,0.00,,,0.01,weatherlink.com 1.10,2013-08-02 07:26:00,
2013-08-02 03:41:00,60.0,59.0,29.74,SW,235,0.0,3.0,97,0.00,,,0.01,weatherlink.com 1.10,2013-08-02 07:41:00,
2013-08-02 03:56:00,59.8,59.0,29.73,NNW,333,0.0,3.0,97,0.00,,,0.01,weatherlink.com 1.10,2013-08-02 07:56:00,
2013-08-02 04:11:00,59.9,59.0,29.74,West,263,0.0,2.0,97,0.00,,,0.01,weatherlink.com 1.10,2013-08-02 08:11:00,
2013-08-02 04:26:00,59.9,59.0,29.74,West,263,0.0,1.0,97,0.00,,,0.01,weatherlink.com 1.10,2013-08-02 08:26:00,
2013-08-02 04:41:00,59.9,59.0,29.74,West,263,0.0,1.0,97,0.00,,,0.01,weatherlink.com 1.10,2013-08-02 08:41:00,
2013-08-02 04:56:00,60.0,59.0,29.74,West,263,0.0,1.0,97,0.00,,,0.01,weatherlink.com 1.10,2013-08-02 08:56:00,
2013-08-02 05:11:00,60.0,59.0,29.74,West,263,0.0,1.0,97,0.00,,,0.01,weatherlink.com 1.10,2013-08-02 09:11:00,
2013-08-02 05:26:00,60.0,59.0,29.74,WNW,282,0.0,5.0,97,0.02,,,0.03,weatherlink.com 1.10,2013-08-02 09:26:00,
2013-08-02 05:41:00,59.9,59.0,29.74,WNW,288,0.0,3.0,97,0.02,,,0.03,weatherlink.com 1.10,2013-08-02 09:41:00,
2013-08-02 05:56:00,60.0,59.0,29.75,NNW,333,0.0,3.0,97,0.02,,,0.03,weatherlink.com 1.10,2013-08-02 09:56:00,
2013-08-02 06:11:00,60.0,59.0,29.75,NW,306,0.0,2.0,97,0.02,,,0.03,weatherlink.com 1.10,2013-08-02 10:11:00,
2013-08-02 06:26:00,59.9,59.0,29.75,West,270,0.0,3.0,97,0.00,,,0.03,weatherlink.com 1.10,2013-08-02 10:26:00,
2013-08-02 06:41:00,59.9,59.0,29.75,WSW,258,0.0,3.0,97,0.00,,,0.03,weatherlink.com 1.10,2013-08-02 10:41:00,
2013-08-02 06:56:00,59.9,59.0,29.75,North,5,1.0,3.0,97,0.00,,,0.03,weatherlink.com 1.10,2013-08-02 10:56:00,
2013-08-02 07:11:00,59.7,59.0,29.76,North,355,3.0,5.0,96,0.00,,,0.03,weatherlink.com 1.10,2013-08-02 11:11:00,
2013-08-02 07:26:00,59.8,59.0,29.76,WNW,288,0.0,6.0,96,0.00,,,0.03,weatherlink.com 1.10,2013-08-02 11:26:00,
2013-08-02 07:41:00,60.6,60.0,29.76,NNE,30,0.0,4.0,96,0.00,,,0.03,weatherlink.com 1.10,2013-08-02 11:41:00,
2013-08-02 07:56:00,61.5,60.0,29.76,NNW,333,0.0,4.0,94,0.00,,,0.03,weatherlink.com 1.10,2013-08-02 11:56:00,
2013-08-02 08:11:00,60.7,59.0,29.76,WNW,300,1.0,5.0,95,0.00,,,0.03,weatherlink.com 1.10,2013-08-02 12:11:00,
2013-08-02 08:26:00,60.4,59.0,29.76,NW,314,0.0,7.0,95,0.00,,,0.03,weatherlink.com 1.10,2013-08-02 12:26:00,
2013-08-02 08:41:00,61.0,59.0,29.76,NNE,28,0.0,5.0,93,0.00,,,0.03,weatherlink.com 1.10,2013-08-02 12:41:00,
2013-08-02 08:56:00,61.3,60.0,29.76,ENE,71,0.0,5.0,94,0.00,,,0.03,weatherlink.com 1.10,2013-08-02 12:56:00,
2013-08-02 09:11:00,61.5,59.0,29.76,NNW,337,0.0,5.0,92,0.00,,,0.03,weatherlink.com 1.10,2013-08-02 13:11:00,
2013-08-02 09:26:00,63.2,60.0,29.75,ENE,76,0.0,5.0,89,0.00,,,0.03,weatherlink.com 1.10,2013-08-02 13:26:00,
2013-08-02 09:41:00,63.8,60.0,29.75,WNW,288,1.0,10.0,86,0.00,,,0.03,weatherlink.com 1.10,2013-08-02 13:41:00,
2013-08-02 09:56:00,64.8,59.0,29.74,NNW,331,0.0,4.0,82,0.00,,,0.03,weatherlink.com 1.10,2013-08-02 13:56:00,
2013-08-02 10:11:00,66.8,60.0,29.74,NNW,338,0.0,2.0,79,0.00,,,0.03,weatherlink.com 1.10,2013-08-02 14:11:00,
2013-08-02 10:26:00,67.0,58.0,29.75,NNE,17,0.0,7.0,74,0.00,,,0.03,weatherlink.com 1.10,2013-08-02 14:26:00,
2013-08-02 10:41:00,67.8,58.0,29.75,WSW,254,1.0,8.0,72,0.00,,,0.03,weatherlink.com 1.10,2013-08-02 14:41:00,
2013-08-02 10:57:00,68.0,58.0,29.75,NE,45,0.0,5.0,71,0.00,,,0.03,weatherlink.com 1.10,2013-08-02 14:57:00,
2013-08-02 11:12:00,67.6,59.0,29.75,NNW,347,0.0,5.0,73,0.00,,,0.03,weatherlink.com 1.10,2013-08-02 15:12:00,
2013-08-02 11:27:00,69.2,59.0,29.75,ENE,64,5.0,5.0,69,0.00,,,0.03,weatherlink.com 1.10,2013-08-02 15:27:00,
2013-08-02 11:42:00,69.8,58.0,29.74,North,360,2.0,7.0,66,0.00,,,0.03,weatherlink.com 1.10,2013-08-02 15:42:00,
2013-08-02 11:56:00,67.5,58.0,29.74,North,360,0.0,4.0,71,0.00,,,0.03,weatherlink.com 1.10,2013-08-02 15:56:00,
2013-08-02 12:12:00,66.7,57.0,29.74,North,355,0.0,4.0,71,0.00,,,0.03,weatherlink.com 1.10,2013-08-02 16:12:00,
2013-08-02 12:27:00,69.7,58.0,29.73,NNE,16,0.0,4.0,66,0.00,,,0.03,weatherlink.com 1.10,2013-08-02 16:27:00,
2013-08-02 12:42:00,61.5,56.0,29.75,NW,317,0.0,12.0,81,0.01,,,0.04,weatherlink.com 1.10,2013-08-02 16:42:00,
2013-08-02 12:57:00,58.4,56.0,29.76,WNW,303,1.0,3.0,91,0.02,,,0.05,weatherlink.com 1.10,2013-08-02 16:57:00,
2013-08-02 13:12:00,59.1,56.0,29.75,WNW,298,0.0,0.0,90,0.02,,,0.05,weatherlink.com 1.10,2013-08-02 17:12:00,
2013-08-02 13:27:00,61.0,57.0,29.75,WNW,298,0.0,0.0,85,0.02,,,0.05,weatherlink.com 1.10,2013-08-02 17:27:00,
2013-08-02 13:42:00,62.8,59.0,29.75,ENE,74,1.0,6.0,87,0.01,,,0.05,weatherlink.com 1.10,2013-08-02 17:42:00,
2013-08-02 13:57:00,66.0,60.0,29.75,NE,50,2.0,8.0,82,0.00,,,0.05,weatherlink.com 1.10,2013-08-02 17:57:00,
2013-08-02 14:12:00,66.1,59.0,29.75,NNW,340,0.0,5.0,79,0.00,,,0.05,weatherlink.com 1.10,2013-08-02 18:12:00,
2013-08-02 14:27:00,67.2,60.0,29.74,WNW,295,0.0,4.0,78,0.00,,,0.05,weatherlink.com 1.10,2013-08-02 18:27:00,
2013-08-02 14:42:00,68.8,61.0,29.75,West,267,0.0,9.0,75,0.00,,,0.05,weatherlink.com 1.10,2013-08-02 18:42:00,
2013-08-02 14:57:00,68.7,61.0,29.74,NNW,327,0.0,6.0,75,0.00,,,0.05,weatherlink.com 1.10,2013-08-02 18:57:00,
2013-08-02 15:12:00,69.5,58.0,29.74,WNW,290,0.0,11.0,68,0.00,,,0.05,weatherlink.com 1.10,2013-08-02 19:12:00,
2013-08-02 15:27:00,69.1,56.0,29.74,NNE,19,3.0,15.0,64,0.00,,,0.05,weatherlink.com 1.10,2013-08-02 19:27:00,
2013-08-02 15:42:00,69.1,57.0,29.73,East,88,0.0,9.0,65,0.00,,,0.05,weatherlink.com 1.10,2013-08-02 19:42:00,
2013-08-02 15:57:00,69.3,55.0,29.72,East,96,3.0,12.0,60,0.00,,,0.05,weatherlink.com 1.10,2013-08-02 19:57:00,
2013-08-02 16:12:00,69.1,54.0,29.71,NNW,346,3.0,12.0,60,0.00,,,0.05,weatherlink.com 1.10,2013-08-02 20:12:00,
2013-08-02 16:27:00,68.9,56.0,29.72,WSW,238,1.0,5.0,63,0.00,,,0.05,weatherlink.com 1.10,2013-08-02 20:27:00,
2013-08-02 16:42:00,69.0,54.0,29.72,NNE,25,1.0,7.0,60,0.00,,,0.05,weatherlink.com 1.10,2013-08-02 20:42:00,
2013-08-02 16:57:00,69.0,55.0,29.72,NNE,30,0.0,6.0,61,0.00,,,0.05,weatherlink.com 1.10,2013-08-02 20:57:00,
2013-08-02 17:12:00,68.1,54.0,29.73,NNW,328,5.0,12.0,61,0.00,,,0.05,weatherlink.com 1.10,2013-08-02 21:12:00,
2013-08-02 17:27:00,67.5,55.0,29.74,NNW,336,6.0,9.0,65,0.00,,,0.05,weatherlink.com 1.10,2013-08-02 21:27:00,
2013-08-02 17:42:00,67.4,55.0,29.74,NNE,19,0.0,14.0,65,0.00,,,0.05,weatherlink.com 1.10,2013-08-02 21:42:00,
2013-08-02 17:57:00,67.1,55.0,29.75,NNW,338,1.0,12.0,66,0.00,,,0.05,weatherlink.com 1.10,2013-08-02 21:57:00,
2013-08-02 18:12:00,66.3,55.0,29.75,NNW,333,0.0,6.0,66,0.00,,,0.05,weatherlink.com 1.10,2013-08-02 22:12:00,
2013-08-02 18:27:00,65.8,54.0,29.76,WNW,297,1.0,3.0,67,0.00,,,0.05,weatherlink.com 1.10,2013-08-02 22:27:00,
2013-08-02 18:42:00,65.4,55.0,29.76,NNW,333,0.0,6.0,68,0.00,,,0.05,weatherlink.com 1.10,2013-08-02 22:42:00,
2013-08-02 18:57:00,64.2,55.0,29.77,North,11,0.0,5.0,71,0.00,,,0.05,weatherlink.com 1.10,2013-08-02 22:57:00,
2013-08-02 19:12:00,63.2,54.0,29.76,WNW,292,0.0,4.0,72,0.00,,,0.05,weatherlink.com 1.10,2013-08-02 23:12:00,
2013-08-02 19:27:00,62.8,54.0,29.76,NW,315,0.0,2.0,74,0.00,,,0.05,weatherlink.com 1.10,2013-08-02 23:27:00,
2013-08-02 19:42:00,62.9,55.0,29.77,West,281,4.0,4.0,75,0.00,,,0.05,weatherlink.com 1.10,2013-08-02 23:42:00,
2013-08-02 19:57:00,63.1,54.0,29.77,WSW,246,0.0,7.0,73,0.00,,,0.05,weatherlink.com 1.10,2013-08-02 23:57:00,
2013-08-02 20:12:00,62.1,54.0,29.78,West,278,0.0,4.0,76,0.00,,,0.05,weatherlink.com 1.10,2013-08-03 00:12:00,
2013-08-02 20:27:00,61.5,54.0,29.78,WNW,301,0.0,3.0,77,0.00,,,0.05,weatherlink.com 1.10,2013-08-03 00:27:00,
2013-08-02 20:42:00,61.3,54.0,29.79,WNW,290,0.0,4.0,77,0.00,,,0.05,weatherlink.com 1.10,2013-08-03 00:42:00,
2013-08-02 20:57:00,61.1,54.0,29.79,NNW,342,0.0,4.0,77,0.00,,,0.05,weatherlink.com 1.10,2013-08-03 00:57:00,
2013-08-02 21:12:00,61.3,54.0,29.79,NNW,333,0.0,5.0,77,0.00,,,0.05,weatherlink.com 1.10,2013-08-03 01:12:00,
2013-08-02 21:27:00,61.2,54.0,29.79,West,262,0.0,4.0,77,0.00,,,0.05,weatherlink.com 1.10,2013-08-03 01:27:00,
2013-08-02 21:42:00,60.1,54.0,29.79,WNW,302,0.0,3.0,80,0.00,,,0.05,weatherlink.com 1.10,2013-08-03 01:42:00,
2013-08-02 21:57:00,58.3,54.0,29.79,WNW,284,0.0,1.0,85,0.00,,,0.05,weatherlink.com 1.10,2013-08-03 01:57:00,
2013-08-02 22:12:00,57.6,54.0,29.79,WNW,284,1.0,2.0,87,0.00,,,0.05,weatherlink.com 1.10,2013-08-03 02:12:00,
2013-08-02 22:27:00,57.2,53.0,29.79,WNW,284,0.0,3.0,87,0.00,,,0.05,weatherlink.com 1.10,2013-08-03 02:27:00,
2013-08-02 22:42:00,56.6,54.0,29.79,WNW,284,0.0,1.0,89,0.00,,,0.05,weatherlink.com 1.10,2013-08-03 02:42:00,
2013-08-02 22:57:00,56.7,54.0,29.80,WNW,284,1.0,3.0,90,0.00,,,0.05,weatherlink.com 1.10,2013-08-03 02:57:00,
2013-08-02 23:12:00,57.3,53.0,29.79,West,281,0.0,4.0,86,0.00,,,0.05,weatherlink.com 1.10,2013-08-03 03:12:00,
2013-08-02 23:27:00,56.4,53.0,29.80,West,267,4.0,6.0,87,0.00,,,0.05,weatherlink.com 1.10,2013-08-03 03:27:00,
2013-08-02 23:42:00,56.5,53.0,29.80,West,267,1.0,4.0,88,0.00,,,0.05,weatherlink.com 1.10,2013-08-03 03:42:00,
2013-08-02 23:57:00,56.1,53.0,29.79,West,267,1.0,3.0,89,0.00,,,0.05,weatherlink.com 1.10,2013-08-03 03:57:00,